Weather History for Angel Fire, NM

Change the Weather History Date:

Thursday, May 2, 2013

  Actual Average (KSKX) Record (KSKX)
Temperature  
Mean Temperature 22 °F -  
Max Temperature 32 °F 64 °F 75 °F (2001)
Min Temperature 13 °F 30 °F 17 °F (2008)
Degree Days  
Heating Degree Days 43    
Moisture  
Dew Point 12 °F    
Average Humidity 69    
Maximum Humidity 82    
Minimum Humidity 42    
Precipitation  
Precipitation 0.00 in - - ()
Sea Level Pressure  
Sea Level Pressure 30.45 in    
Wind  
Wind Speed 6 mph (North)    
Max Wind Speed 12 mph    
Max Gust Speed 17 mph    
Visibility 10 miles    
Events      
Averages and records for this station are not official NWS values.
T = Trace of Precipitation, MM = Missing Value Source: NWS Daily Summary

Daily Weather History Graph

Daily Weather History Graph

Search for Another Location

Airport:

Trip Planner

Search our weather history database for the weather conditions in past years. The results will help you decide how hot, cold, wet, or windy it might be!

Date:

Astronomy

May. 02, 2013 Rise Set
Actual Time 6:06 AM MDT 7:50 PM MDT
Civil Twilight 5:38 AM MDT 8:18 PM MDT
Nautical Twilight 5:05 AM MDT 8:51 PM MDT
Astronomical Twilight 4:29 AM MDT 9:27 PM MDT
Moon 1:42 AM MDT (5/2) 12:54 PM MDT (5/2)
Length of Visible Light 14h 39m
Length of Day
13h 43m
Waning Gibbous, 47% of the Moon is Illuminated
May 2
Waning Gibbous
May 9
New
May 17
First Quarter
May 24
Full
May 31
Last Quarter

Hourly Weather History & Observations

Time (MDT) Temp. Windchill Dew Point Humidity Pressure Visibility Wind Dir Wind Speed Gust Speed Precip Events Conditions
12:15 AM 24.6 °F 14.4 °F 17.6 °F 75% 30.37 in 10.0 mi North 10.4 mph 17.3 mph N/A   Overcast
12:35 AM 23.7 °F 12.6 °F 16.7 °F 75% 30.38 in 10.0 mi North 11.5 mph 17.3 mph N/A   Mostly Cloudy
12:55 AM 24.1 °F 14.4 °F 16.5 °F 73% 30.38 in 10.0 mi NNW 9.2 mph - N/A   Mostly Cloudy
1:15 AM 23.7 °F 13.3 °F 15.6 °F 71% 30.38 in 10.0 mi NNW 10.4 mph - N/A   Overcast
1:35 AM 22.5 °F 11.7 °F 14.9 °F 73% 30.38 in 10.0 mi NNW 10.4 mph - N/A   Scattered Clouds
1:55 AM 21.7 °F 10.8 °F 14.0 °F 72% 30.38 in 10.0 mi North 10.4 mph - N/A   Scattered Clouds
2:15 AM 21.0 °F 10.6 °F 13.5 °F 73% 30.38 in 10.0 mi North 9.2 mph - N/A   Scattered Clouds
2:35 AM 21.0 °F 10.6 °F 13.6 °F 73% 30.39 in 10.0 mi NNW 9.2 mph - N/A   Clear
2:55 AM 20.3 °F 12.5 °F 13.8 °F 76% 30.40 in 10.0 mi NNW 5.8 mph - N/A   Clear
3:15 AM 19.2 °F 10.2 °F 12.7 °F 76% 30.41 in 10.0 mi North 6.9 mph - N/A   Clear
3:35 AM 18.9 °F 12.1 °F 12.0 °F 75% 30.41 in 10.0 mi North 4.6 mph - N/A   Clear
3:55 AM 18.9 °F 12.1 °F 11.1 °F 72% 30.43 in 10.0 mi North 4.6 mph - N/A   Clear
4:15 AM 17.2 °F 10.2 °F 10.8 °F 76% 30.44 in 10.0 mi North 4.6 mph - N/A   Clear
4:35 AM 16.7 °F - 10.6 °F 77% 30.45 in 10.0 mi Calm Calm - N/A   Clear
4:55 AM 16.0 °F - 10.2 °F 78% 30.45 in 10.0 mi Calm Calm - N/A   Clear
5:15 AM 15.6 °F - 9.1 °F 76% 30.46 in 10.0 mi Calm Calm - N/A   Clear
5:35 AM 15.4 °F - 10.2 °F 80% 30.45 in 10.0 mi Calm Calm - N/A   Clear
5:55 AM 13.6 °F - 8.2 °F 79% 30.46 in 10.0 mi Calm Calm - N/A   Clear
6:15 AM 14.0 °F - 9.5 °F 82% 30.47 in 10.0 mi Calm Calm - N/A   Clear
6:35 AM 14.4 °F - 9.1 °F 80% 30.48 in 10.0 mi Calm Calm - N/A   Clear
6:55 AM 16.3 °F - 11.1 °F 80% 30.49 in 10.0 mi Calm Calm - N/A   Clear
7:15 AM 18.5 °F - 12.2 °F 76% 30.49 in 10.0 mi Calm Calm - N/A   Clear
7:35 AM 20.5 °F - 12.0 °F 70% 30.50 in 10.0 mi Calm Calm - N/A   Clear
7:55 AM 22.1 °F - 12.2 °F 66% 30.50 in 10.0 mi Calm Calm - N/A   Clear
8:15 AM 24.8 °F - 12.0 °F 58% 30.50 in 10.0 mi Calm Calm - N/A   Clear
8:35 AM 27.0 °F 21.6 °F 11.5 °F 52% 30.50 in 10.0 mi North 4.6 mph - N/A   Clear
8:55 AM 27.9 °F - 11.5 °F 50% 30.50 in 10.0 mi Calm Calm - N/A   Clear
9:15 AM 29.1 °F 24.1 °F 12.4 °F 50% 30.50 in 10.0 mi North 4.6 mph - N/A   Clear
9:35 AM 30.4 °F - 12.0 °F 47% 30.49 in 10.0 mi Calm Calm - N/A   Clear
9:55 AM 31.8 °F - 11.3 °F 43% 30.49 in 10.0 mi Calm Calm - N/A   Clear
10:15 AM 32.4 °F 26.0 °F 11.7 °F 42% 30.49 in 10.0 mi NE 6.9 mph - N/A   Clear